Le nostre stazioni meteo in Italia

Pubblicità
Il mio iltempo24.it
Ponza, Italia (16280): Temperatura & dewpoint: 05.12.2018 02:00:00 - 11.12.2018 02:00:00 (CET)Ponza, Italia (16280): velocità del vento: 05.12.2018 02:00:00 - 11.12.2018 02:00:00 (CET)Ponza, Italia (16280): direzione del vento: 05.12.2018 02:00:00 - 11.12.2018 02:00:00 (CET)Ponza, Italia (16280): reduced air pressure: 05.12.2018 02:00:00 - 11.12.2018 02:00:00 (CET)Ponza, Italia (16280): visibility: 05.12.2018 02:00:00 - 11.12.2018 02:00:00 (CET)Ponza, Italia (16280): ore di luce: 05.12.2018 02:00:00 - 11.12.2018 02:00:00 (CET)
Data & Tempo tt [°C] td [°C] ff [km/h] ff [kn] dd ppp [hPa] vv [km] sd [min]
11.12.2018 02:00:00 - - - - - - - -
11.12.2018 01:00:00 13,0 4,4 35 19 N 1014,9 15 -
11.12.2018 00:00:00 13,2 4,6 34 18 N 1014,9 20 -
10.12.2018 23:00:00 13,6 5,2 34 18 N 1014,6 25 -
10.12.2018 22:00:00 13,8 5,4 31 17 N 1014,4 10 -
10.12.2018 21:00:00 14,0 7,3 35 19 N 1014,0 30 -
10.12.2018 20:00:00 14,6 5,1 44 24 N 1012,9 30 -
10.12.2018 19:00:00 15,0 5,2 48 26 N 1012,1 30 -
10.12.2018 18:00:00 15,0 7,8 34 18 NNO 1011,9 30 -
10.12.2018 17:00:00 15,0 8,5 39 21 ONO 1011,6 30 -
10.12.2018 16:00:00 15,0 9,1 26 14 ONO 1011,9 30 60
10.12.2018 15:00:00 15,0 11,6 22 12 ONO 1011,5 20 60
10.12.2018 14:00:00 15,0 13,2 24 13 NNO 1011,9 20 36
10.12.2018 13:00:00 15,2 11,8 39 21 ONO 1012,2 20 60
10.12.2018 12:00:00 15,0 11,6 24 13 NNO 1012,5 20 48
10.12.2018 11:00:00 15,0 12,7 31 17 NNO 1012,9 15 60
10.12.2018 10:00:00 15,0 13,4 26 14 NNO 1013,3 10 60
10.12.2018 09:00:00 15,4 12,0 34 18 NO 1012,9 10 36
10.12.2018 08:00:00 14,8 13,7 24 13 NO 1012,1 10 -
10.12.2018 07:00:00 14,8 13,7 22 12 NO 1011,9 10 -
10.12.2018 06:00:00 14,4 13,6 21 11 ONO 1011,2 10 -
10.12.2018 05:00:00 14,6 13,8 21 11 O 1011,7 10 -
10.12.2018 04:00:00 15,0 13,4 22 12 NO 1011,3 10 -
10.12.2018 03:00:00 15,0 13,4 22 12 NO 1011,3 10 -
10.12.2018 02:00:00 15,4 13,6 50 27 ONO 1010,4 10 -
10.12.2018 01:00:00 15,4 12,4 52 28 ONO 1010,1 10 -
10.12.2018 00:00:00 16,0 11,4 55 30 ONO 1009,4 10 -
09.12.2018 23:00:00 15,8 13,1 55 30 ONO 1009,8 10 -
09.12.2018 22:00:00 14,2 11,4 29 16 ONO 1010,6 10 -
09.12.2018 21:00:00 13,6 12,3 15 8 NO 1011,0 10 -
09.12.2018 20:00:00 15,0 14,4 24 13 ONO 1010,4 8 -
09.12.2018 19:00:00 15,8 14,2 24 13 SO 1010,1 7 -
09.12.2018 18:00:00 15,4 14,6 29 16 ONO 1009,7 8 -
09.12.2018 17:00:00 15,2 14,6 41 22 ONO 1008,9 8 -
09.12.2018 16:00:00 15,4 13,9 39 21 S 1009,2 4,0 0
09.12.2018 15:00:00 15,6 13,8 39 21 ONO 1009,6 7 0
09.12.2018 14:00:00 15,8 14,2 29 16 OSO 1010,5 10 0
09.12.2018 13:00:00 15,8 14,2 29 16 SO 1011,2 10 0
09.12.2018 12:00:00 15,6 14,6 26 14 ONO 1012,5 10 0
09.12.2018 11:00:00 15,4 14,6 28 15 ONO 1014,0 10 0
09.12.2018 10:00:00 15,2 14,9 21 11 N 1014,9 10 0
09.12.2018 09:00:00 14,8 14,5 21 11 NNO 1014,9 10 0
09.12.2018 08:00:00 14,4 13,8 21 11 O 1015,2 10 0
09.12.2018 07:00:00 14,0 13,1 21 11 ONO 1016,0 30 -
09.12.2018 06:00:00 14,0 11,4 13 7 ONO 1016,1 30 -
09.12.2018 05:00:00 14,2 11,0 16 9 ONO 1016,1 30 -
09.12.2018 04:00:00 14,0 10,4 21 11 ONO 1016,3 30 -
09.12.2018 03:00:00 13,8 9,7 28 15 ONO 1016,5 30 -
09.12.2018 02:00:00 13,6 8,0 26 14 ONO 1016,5 30 -
09.12.2018 01:00:00 13,6 5,8 26 14 ONO 1016,1 20 -
09.12.2018 00:00:00 15,0 7,5 31 17 ONO 1016,2 30 -
08.12.2018 23:00:00 14,2 5,8 21 11 NO 1016,1 30 -
08.12.2018 22:00:00 14,4 6,7 28 15 SO 1016,1 30 -
08.12.2018 21:00:00 14,4 6,5 34 18 N 1016,0 30 -
08.12.2018 20:00:00 14,8 7,6 31 17 NNO 1014,9 20 -
08.12.2018 19:00:00 15,6 8,8 42 23 N 1013,9 30 -
08.12.2018 18:00:00 15,6 8,1 31 17 ONO 1012,8 30 -
08.12.2018 17:00:00 15,6 9,7 57 31 ONO 1012,1 10 -
08.12.2018 16:00:00 16,0 9,0 57 31 ONO 1011,7 10 60
08.12.2018 15:00:00 15,6 10,8 41 22 ONO 1011,0 10 48
08.12.2018 14:00:00 15,4 11,2 39 21 ONO 1012,0 10 48
08.12.2018 13:00:00 15,2 11,2 37 20 ONO 1011,9 10 36
08.12.2018 12:00:00 15,6 12,2 37 20 ONO 1011,8 10 60
08.12.2018 11:00:00 15,6 11,6 50 27 ONO 1012,0 10 60
08.12.2018 10:00:00 14,6 12,5 31 17 N 1012,7 10 0
08.12.2018 09:00:00 15,2 11,2 37 20 S 1012,4 10 0
08.12.2018 08:00:00 15,4 13,1 28 15 SSO 1012,9 10 0
08.12.2018 07:00:00 15,2 12,9 22 12 O 1012,9 20 -
08.12.2018 06:00:00 15,2 13,0 22 12 O 1013,7 20 -
08.12.2018 05:00:00 15,0 11,4 24 13 NNE 1014,6 20 -
08.12.2018 04:00:00 15,0 11,8 22 12 NNE 1015,1 20 -
08.12.2018 03:00:00 15,0 14,5 31 17 O 1016,4 20 -
08.12.2018 02:00:00 15,0 14,5 29 16 O 1017,0 20 -
08.12.2018 01:00:00 14,6 13,3 15 8 SO 1018,3 30 -
08.12.2018 00:00:00 14,6 14,0 15 8 SO 1019,0 30 -
07.12.2018 23:00:00 14,4 13,6 18 10 OSO 1019,7 30 -
07.12.2018 22:00:00 14,2 11,4 11 6 S 1020,1 30 -
07.12.2018 21:00:00 14,0 11,7 9 5 SO 1020,3 30 -
07.12.2018 20:00:00 14,0 12,2 11 6 OSO 1020,8 30 -
07.12.2018 19:00:00 14,0 11,9 9 5 OSO 1021,0 30 -
07.12.2018 18:00:00 13,8 11,5 9 5 SO 1020,9 30 -
07.12.2018 17:00:00 14,0 11,7 8 4 OSO 1021,1 20 -
07.12.2018 16:00:00 15,0 11,2 2 1 OSO 1021,3 30 42
07.12.2018 15:00:00 15,2 11,2 2 1 NNO 1021,5 30 60
07.12.2018 14:00:00 16,0 11,6 2 1 NE 1021,5 30 60
07.12.2018 13:00:00 15,4 10,8 13 7 ESE 1022,0 30 60
07.12.2018 12:00:00 15,8 11,0 5 3 E 1022,0 30 60
07.12.2018 11:00:00 15,6 11,6 13 7 E 1022,0 30 60
07.12.2018 10:00:00 15,2 11,0 15 8 ENE 1022,0 30 60
07.12.2018 09:00:00 14,2 10,4 11 6 ENE 1021,6 30 60
07.12.2018 08:00:00 13,6 10,4 13 7 NE 1021,7 30 6
07.12.2018 07:00:00 13,0 10,2 13 7 NE 1021,2 30 -
07.12.2018 06:00:00 13,2 10,0 13 7 NE 1021,1 30 -
07.12.2018 05:00:00 13,4 10,0 22 12 NE 1020,5 30 -
07.12.2018 04:00:00 13,4 9,8 15 8 ENE 1020,1 30 -
07.12.2018 03:00:00 13,6 9,7 22 12 NE 1020,1 30 -
07.12.2018 02:00:00 13,6 9,7 13 7 NE 1020,9 20 -
07.12.2018 01:00:00 14,0 10,4 22 12 ENE 1019,9 30 -
07.12.2018 00:00:00 14,0 11,2 16 9 NE 1019,1 10 -
06.12.2018 23:00:00 14,4 13,1 21 11 NE 1019,5 10 -
06.12.2018 22:00:00 14,6 13,7 21 11 NE 1019,3 10 -
06.12.2018 21:00:00 15,0 14,5 16 9 ESE 1019,0 10 -
06.12.2018 20:00:00 14,6 13,7 15 8 E 1018,5 10 -
06.12.2018 19:00:00 14,2 13,1 9 5 E 1018,3 10 -
06.12.2018 18:00:00 14,2 12,4 5 3 E 1018,1 10 -
06.12.2018 17:00:00 14,2 13,1 9 5 ESE 1018,2 10 0
06.12.2018 16:00:00 14,4 13,0 9 5 ESE 1018,7 10 0
06.12.2018 15:00:00 14,8 13,0 0 0 N 1019,1 10 18
06.12.2018 14:00:00 15,2 13,0 4 2 S 1019,0 10 0
06.12.2018 13:00:00 16,0 13,7 4 2 OSO 1020,0 10 0
06.12.2018 12:00:00 15,4 13,1 5 3 SSO 1020,7 10 0
06.12.2018 11:00:00 15,6 13,4 8 4 S 1021,2 10 12
06.12.2018 10:00:00 15,2 13,2 8 4 S 1022,0 15 24
06.12.2018 09:00:00 14,8 13,0 5 3 S 1022,1 20 30
06.12.2018 08:00:00 14,0 12,0 8 4 SSO 1022,3 20 30
06.12.2018 07:00:00 14,0 13,1 4 2 OSO 1022,1 10 -
06.12.2018 06:00:00 14,0 13,0 4 2 OSO 1022,1 10 -
06.12.2018 05:00:00 14,6 13,7 8 4 O 1022,9 10 -
06.12.2018 04:00:00 14,4 13,4 5 3 O 1023,0 10 -
06.12.2018 03:00:00 - - - - - - - -
06.12.2018 02:00:00 14,4 13,0 8 4 O 1024,1 10 -
06.12.2018 01:00:00 14,2 12,6 4 2 O 1024,3 15 -
06.12.2018 00:00:00 14,6 11,9 8 4 SO 1024,7 10 -
05.12.2018 23:00:00 14,6 11,4 5 3 OSO 1024,6 10 -
05.12.2018 22:00:00 14,8 11,6 5 3 OSO 1024,6 10 -
05.12.2018 21:00:00 14,8 12,1 5 3 OSO 1024,4 10 -
05.12.2018 20:00:00 15,0 13,7 9 5 O 1024,5 15 -
05.12.2018 19:00:00 15,0 13,7 8 4 OSO 1024,2 15 -
05.12.2018 18:00:00 14,8 12,7 5 3 O 1023,9 15 -
05.12.2018 17:00:00 15,0 14,0 4 2 NO 1023,7 15 -
05.12.2018 16:00:00 15,8 13,5 4 2 N 1023,6 15 60
05.12.2018 15:00:00 17,0 13,5 4 2 E 1023,2 25 60
05.12.2018 14:00:00 17,0 13,1 5 3 N 1023,3 25 60
05.12.2018 13:00:00 18,4 12,6 4 2 ENE 1023,6 30 60
05.12.2018 12:00:00 18,0 11,3 9 5 E 1023,8 30 60
05.12.2018 11:00:00 17,0 11,1 15 8 E 1023,9 30 60
05.12.2018 10:00:00 16,8 10,7 16 9 ENE 1023,3 25 60
05.12.2018 09:00:00 15,4 9,1 21 11 ENE 1022,6 25 60
05.12.2018 08:00:00 15,2 10,2 15 8 ENE 1022,2 20 60
05.12.2018 07:00:00 14,8 10,4 16 9 E 1021,9 20 0
05.12.2018 06:00:00 15,0 10,4 15 8 E 1021,8 20 -
05.12.2018 05:00:00 14,6 10,8 16 9 ENE 1019,7 10 -
05.12.2018 04:00:00 14,8 10,8 16 9 E 1019,3 10 -
05.12.2018 03:00:00 14,8 11,8 16 9 ENE 1018,9 10 -
05.12.2018 02:00:00 15,2 13,2 16 9 ENE 1018,1 10 -

tt = Temperatura
td = dewpoint
ff = velocità del vento
dd = direzione del vento
ppp = reduced air pressure
vv = visibility
sd = ore di luce

Stazioni seguenti

WeatherPro
AMSI
MeteoEarth